1513144800.35,44763,6.94,72844.8,-9.73,-10.27,-10.31,0,*58
1513144801.58,44764,6.94,72838.0,-9.73,-10.31,-10.27,0,*5F
1513144802.79,44765,6.94,72832.0,-9.75,-10.31,-10.31,0,*5F
1513144804.03,44766,6.94,72836.8,-9.73,-10.27,-10.31,0,*5D
1513144805.26,44767,6.94,72828.8,-9.73,-10.31,-10.27,0,*5C
1513144806.5,44768,6.94,72816.0,-9.73,-10.31,-10.27,0,*53
1513144807.73,44769,6.94,72814.8,-9.73,-10.27,-10.27,0,*55
1513144808.97,44770,6.94,72810.0,-9.73,-10.31,-10.27,0,*5A
1513144810.2,44771,6.94,72808.0,-9.73,-10.27,-10.31,0,*5B
1513144811.43,44772,6.94,72822.8,-9.73,-10.27,-10.31,0,*58
1513144812.64,44773,6.94,72820.5,-9.75,-10.31,-10.27,0,*5F
1513144813.85,44774,6.94,72822.3,-9.75,-10.31,-10.31,0,*5F
1513144815.06,44775,6.94,72824.5,-9.75,-10.31,-10.31,0,*5E
1513144816.3,44776,6.94,72824.5,-9.73,-10.27,-10.27,0,*5B
1513144817.53,44777,6.94,72830.5,-9.73,-10.31,-10.31,0,*5A
1513144818.74,44778,6.94,72830.0,-9.75,-10.31,-10.31,0,*53
1513144819.95,44779,6.94,72832.5,-9.75,-10.31,-10.27,0,*55
1513144821.18,44780,6.94,72832.5,-9.73,-10.31,-10.31,0,*52
1513144822.42,44781,6.94,72828.0,-9.73,-10.31,-10.31,0,*53
1513144823.62,44782,6.94,72828.8,-9.75,-10.27,-10.31,0,*51
1513144824.83,44783,6.94,72832.8,-9.75,-10.27,-10.31,0,*50
1513144826.07,44784,6.94,72832.8,-9.73,-10.31,-10.31,0,*56
1513144827.3,44785,6.94,72834.3,-9.73,-10.31,-10.31,0,*57
1513144828.51,44786,6.94,72838.3,-9.75,-10.31,-10.31,0,*52
1513144829.72,44787,6.94,72834.8,-9.75,-10.31,-10.27,0,*54
1513144830.95,44788,6.94,72836.0,-9.73,-10.31,-10.27,0,*5D
1513144832.16,44789,6.94,72840.0,-9.75,-10.31,-10.27,0,*5A
1513144833.4,44790,6.94,72832.8,-9.73,-10.27,-10.31,0,*54
1513144834.61,44791,6.94,72828.3,-9.75,-10.27,-10.27,0,*54
1513144835.82,44792,6.94,72836.5,-9.75,-10.27,-10.31,0,*50
1513144837.03,44793,6.94,72842.5,-9.75,-10.31,-10.31,0,*56
1513144838.26,44794,6.94,72836.5,-9.73,-10.31,-10.31,0,*57
1513144839.47,44795,6.94,72840.3,-9.75,-10.27,-10.31,0,*57
1513144840.68,44796,6.94,72836.5,-9.75,-10.27,-10.27,0,*53
1513144841.91,44797,6.94,72836.0,-9.73,-10.31,-10.31,0,*54
1513144843.14,44798,6.94,72836.5,-9.73,-10.31,-10.31,0,*5B
1513144844.38,44799,6.94,72836.0,-9.73,-10.31,-10.31,0,*5A
1513144845.61,44800,6.94,72840.0,-9.73,-10.27,-10.31,0,*52
1513144846.84,44801,6.94,72840.0,-9.73,-10.31,-10.31,0,*54
1513144848.07,44802,6.94,72840.8,-9.73,-10.27,-10.31,0,*50
1513144849.28,44803,6.94,72838.8,-9.75,-10.27,-10.31,0,*57
1513144850.52,44804,6.94,72836.5,-9.73,-10.27,-10.31,0,*56
1513144851.75,44805,6.94,72842.8,-9.73,-10.31,-10.31,0,*50
1513144852.98,44806,6.94,72846.3,-9.73,-10.27,-10.27,0,*53
1513144854.19,44807,6.94,72846.8,-9.75,-10.27,-10.31,0,*53
1513144855.42,44808,6.94,72840.8,-9.73,-10.27,-10.31,0,*5A
1513144856.66,44809,6.94,72840.8,-9.73,-10.27,-10.27,0,*5C
1513144857.87,44810,6.94,72842.0,-9.75,-10.27,-10.27,0,*52
1513144859.08,44811,6.94,72838.5,-9.75,-10.27,-10.27,0,*53
1513144860.32,44812,6.94,72840.3,-9.73,-10.27,-10.27,0,*56
1513144861.55,44813,6.94,72842.5,-9.73,-10.27,-10.31,0,*50
1513144862.78,44814,6.94,72844.8,-9.73,-10.31,-10.31,0,*50
1513144864.02,44815,6.94,72842.5,-9.73,-10.27,-10.27,0,*51
1513144865.23,44816,6.94,72844.5,-9.75,-10.31,-10.27,0,*53
1513144866.46,44817,6.94,72844.3,-9.73,-10.31,-10.31,0,*53
1513144867.7,44818,6.94,72846.3,-9.73,-10.31,-10.27,0,*5B
1513144868.93,44819,6.94,72844.3,-9.73,-10.27,-10.27,0,*5D
1513144870.14,44820,6.94,72842.3,-9.75,-10.31,-10.31,0,*51
1513144871.35,44821,6.94,72842.3,-9.75,-10.27,-10.27,0,*50
1513144872.59,44822,6.94,72844.3,-9.73,-10.31,-10.27,0,*52
1513144873.85,44823,6.94,72844.8,-9.73,-10.41,-10.27,0,*54
1513144875.08,44824,6.94,72846.8,-9.73,-10.31,-10.19,0,*59
1513144876.29,44825,6.94,72844.8,-9.75,-10.31,-10.27,0,*53
1513144877.53,44826,6.94,72840.3,-9.73,-10.27,-10.31,0,*56
1513144878.76,44827,6.94,72846.0,-9.73,-10.27,-10.27,0,*50
1513144880.0,44828,6.94,72850.8,-9.73,-10.27,-10.27,0,*5F
1513144881.23,44829,6.94,72840.5,-9.73,-10.31,-10.31,0,*5E
1513144882.46,44830,6.94,72844.5,-9.73,-10.31,-10.31,0,*56
1513144883.7,44831,6.94,72844.3,-9.73,-10.27,-10.27,0,*57
1513144884.93,44832,6.94,72846.0,-9.73,-10.27,-10.23,0,*50
1513144886.16,44833,6.94,72840.5,-9.73,-10.31,-10.27,0,*52
1513144887.39,44834,6.94,72844.8,-9.73,-10.31,-10.31,0,*52
1513144888.6,44835,6.94,72840.8,-9.75,-10.27,-10.27,0,*55
1513144889.82,44836,6.94,72842.5,-9.75,-10.27,-10.27,0,*56
1513144891.02,44837,6.94,72840.8,-9.75,-10.27,-10.31,0,*50
1513144892.23,44838,6.94,72840.8,-9.75,-10.27,-10.27,0,*58
1513144893.47,44839,6.94,72842.8,-9.73,-10.27,-10.27,0,*5F
1513144894.71,44840,6.94,72846.5,-9.73,-10.31,-10.27,0,*56
1513144895.94,44841,6.94,72848.5,-9.73,-10.27,-10.27,0,*50
1513144897.18,44842,6.94,72846.8,-9.73,-10.19,-10.27,0,*5E
1513144898.41,44843,6.94,72846.3,-9.73,-10.27,-10.27,0,*52
1513144899.65,44844,6.94,72840.3,-9.73,-10.27,-10.19,0,*58
1513144900.88,44845,6.94,72846.0,-9.73,-10.27,-10.27,0,*54
1513144902.12,44846,6.94,72846.0,-9.73,-10.27,-10.31,0,*50
1513144903.32,44847,6.94,72848.0,-9.71,-10.23,-10.23,0,*54
1513144904.55,44848,6.94,72846.3,-9.73,-10.27,-10.27,0,*59
1513144905.79,44849,6.94,72842.8,-9.73,-10.31,-10.27,0,*5F
1513144907.02,44850,6.94,72844.0,-9.73,-10.31,-10.27,0,*57
1513144908.26,44851,6.94,72848.0,-9.73,-10.27,-10.27,0,*51
1513144909.49,44852,6.94,72844.0,-9.73,-10.31,-10.27,0,*55
1513144910.73,44853,6.94,72840.5,-9.73,-10.27,-10.27,0,*53
1513144911.94,44854,6.94,72840.5,-9.71,-10.23,-10.27,0,*52
1513144913.14,44855,6.94,72848.3,-9.71,-10.23,-10.23,0,*57
1513144914.34,44856,6.94,72850.0,-9.71,-10.23,-10.23,0,*54
1513144915.54,44857,6.94,72846.5,-9.71,-10.27,-10.23,0,*51
1513144916.77,44858,6.94,72844.5,-9.73,-10.27,-10.27,0,*58
1513144918.01,44859,6.94,72842.3,-9.73,-10.27,-10.27,0,*59
1513144919.24,44860,6.94,72846.8,-9.73,-10.31,-10.27,0,*54
1513144920.48,44861,6.94,72844.3,-9.73,-10.31,-10.27,0,*55
1513144921.72,44862,6.94,72842.0,-9.73,-10.27,-10.27,0,*51
1513144922.95,44863,6.94,72838.8,-9.73,-10.27,-10.27,0,*50
1513144924.18,44864,6.94,72840.8,-9.73,-10.27,-10.27,0,*57
1513144925.42,44865,6.94,72840.0,-9.73,-10.19,-10.19,0,*56
1513144926.66,44866,6.94,72844.3,-9.73,-10.19,-10.31,0,*5F
1513144927.86,44867,6.94,72850.0,-9.71,-10.23,-10.23,0,*56
1513144929.1,44868,6.94,72842.8,-9.73,-10.31,-10.27,0,*5C
1513144930.33,44869,6.94,72836.5,-9.73,-10.27,-10.19,0,*57
1513144931.57,44870,6.94,72846.0,-9.73,-10.27,-10.19,0,*5F
1513144932.8,44871,6.94,72842.5,-9.73,-10.27,-10.27,0,*53
1513144934.01,44872,6.94,72842.0,-9.71,-10.23,-10.27,0,*56
1513144935.24,44873,6.94,72844.5,-9.73,-10.27,-10.19,0,*5C
1513144936.48,44874,6.94,72846.0,-9.73,-10.19,-10.19,0,*56
1513144937.68,44875,6.94,72846.0,-9.71,-10.23,-10.23,0,*55
1513144938.89,44876,6.94,72848.3,-9.71,-10.27,-10.23,0,*52
1513144940.09,44877,6.94,72844.3,-9.71,-10.23,-10.23,0,*57
1513144941.32,44878,6.94,72844.8,-9.73,-10.27,-10.27,0,*5A
1513144942.56,44879,6.94,72844.0,-9.73,-10.27,-10.27,0,*5B
1513144943.79,44880,6.94,72850.8,-9.73,-10.31,-10.27,0,*5A
1513144945.03,44881,6.94,72846.8,-9.73,-10.27,-10.31,0,*5B
1513144946.26,44882,6.94,72844.5,-9.73,-10.27,-10.27,0,*5F
1513144947.49,44883,6.94,72844.5,-9.73,-10.27,-10.27,0,*5E
1513144948.73,44884,6.94,72844.0,-9.73,-10.27,-10.27,0,*59
1513144949.97,44885,6.94,72844.8,-9.73,-10.31,-10.19,0,*52
1513144951.2,44886,6.94,72850.8,-9.73,-10.27,-10.31,0,*5C
1513144952.43,44887,6.94,72854.0,-9.73,-10.31,-10.27,0,*5D
1513144953.67,44888,6.94,72844.5,-9.73,-10.27,-10.27,0,*55
1513144954.9,44889,6.94,72846.3,-9.73,-10.27,-10.27,0,*54
1513144956.14,44890,6.94,72846.0,-9.73,-10.27,-10.31,0,*5B
1513144957.37,44891,6.94,72846.8,-9.73,-10.31,-10.27,0,*5A
1513144958.61,44892,6.94,72846.0,-9.73,-10.31,-10.19,0,*54
1513144959.84,44893,6.94,72850.5,-9.73,-10.31,-10.27,0,*58
1513144961.05,44894,6.94,72848.0,-9.71,-10.23,-10.15,0,*5F
1513144962.25,44895,6.94,72848.5,-9.71,-10.23,-10.23,0,*5B
1513144963.45,44896,6.94,72848.3,-9.71,-10.23,-10.23,0,*58
1513144964.65,44897,6.94,72848.8,-9.67,-10.23,-10.23,0,*5E
1513144965.86,44898,6.94,72850.3,-9.71,-10.23,-10.15,0,*53
1513144967.07,44899,6.94,72852.0,-9.71,-10.23,-10.15,0,*52
1513144968.3,44900,6.94,72848.5,-9.73,-10.27,-10.19,0,*59
1513144969.54,44901,6.94,72850.5,-9.73,-10.19,-10.27,0,*58
1513144970.74,44902,6.94,72844.3,-9.67,-10.23,-10.23,0,*53
1513144971.94,44903,6.94,72848.8,-9.71,-10.23,-10.23,0,*55
1513144973.15,44904,6.94,72850.5,-9.71,-10.23,-10.15,0,*57
1513144974.36,44905,6.94,72850.3,-9.71,-10.23,-10.15,0,*56
1513144975.56,44906,6.94,72846.8,-9.71,-10.23,-10.23,0,*50
1513144976.76,44907,6.94,72848.8,-9.71,-10.27,-10.23,0,*55
1513144977.97,44908,6.94,72844.5,-9.71,-10.15,-10.23,0,*5B
1513144979.17,44909,6.94,72848.5,-9.71,-10.15,-10.23,0,*5A
1513144980.38,44910,6.94,72840.8,-9.71,-10.15,-10.15,0,*57
1513144981.59,44911,6.94,72846.3,-9.71,-10.15,-10.15,0,*56
1513144982.8,44912,6.94,72844.3,-9.71,-10.23,-10.15,0,*50
1513144984.01,44913,6.94,72844.0,-9.71,-10.23,-10.15,0,*51
1513144985.21,44914,6.94,72844.0,-9.67,-10.09,-10.15,0,*59
1513144986.41,44915,6.94,72846.8,-9.71,-10.15,-10.09,0,*5F
1513144987.62,44916,6.94,72846.0,-9.71,-10.15,-10.15,0,*51
1513144988.83,44917,6.94,72846.3,-9.71,-10.15,-10.15,0,*50
1513144990.05,44918,6.94,72844.8,-9.71,-10.15,-10.15,0,*5F
1513144991.25,44919,6.94,72846.3,-9.67,-10.15,-10.09,0,*54
1513144992.46,44920,6.94,72842.8,-9.71,-10.15,-10.15,0,*54
1513144993.66,44921,6.94,72844.0,-9.71,-10.09,-10.15,0,*58
1513144994.87,44922,6.94,72838.5,-9.71,-10.15,-10.15,0,*56
1513144996.08,44923,6.94,72836.0,-9.71,-10.15,-10.15,0,*57
1513144997.28,44924,6.94,72838.3,-9.71,-10.09,-10.15,0,*5D
1513144998.49,44925,6.94,72840.8,-9.71,-10.15,-10.09,0,*5C
1513144999.7,44926,6.94,72832.5,-9.67,-10.23,-10.15,0,*50
1513145000.89,44927,6.94,72834.0,-9.71,-10.09,-10.23,0,*5B
1513145002.08,44928,6.94,72834.5,-9.67,-10.09,-10.23,0,*53
1513145003.29,44929,6.94,72840.5,-9.71,-10.15,-10.09,0,*50
1513145004.5,44930,6.94,72840.0,-9.71,-10.15,-10.15,0,*55
1513145005.71,44931,6.94,72836.3,-9.67,-10.15,-10.15,0,*53
1513145006.92,44932,6.94,72840.8,-9.67,-10.15,-10.15,0,*50
1513145008.11,44933,6.94,72830.5,-9.67,-10.09,-10.09,0,*51
1513145009.32,44934,6.94,72828.0,-9.71,-10.15,-10.09,0,*5C
1513145010.51,44935,6.94,72824.8,-9.71,-10.09,-10.09,0,*50
1513145011.71,44936,6.94,72830.0,-9.71,-10.15,-10.09,0,*5E
1513145012.93,44937,6.94,72838.3,-9.71,-10.15,-10.15,0,*52
1513145014.13,44938,6.94,72832.5,-9.71,-10.15,-10.09,0,*50
1513145015.34,44939,6.94,72836.8,-9.67,-10.15,-10.15,0,*5B
1513145016.55,44940,6.94,72842.3,-9.71,-10.15,-10.15,0,*52
1513145017.75,44941,6.94,72840.8,-9.67,-10.09,-10.09,0,*54
1513145018.94,44942,6.94,72846.3,-9.67,-10.09,-10.09,0,*57
1513145020.14,44943,6.94,72844.3,-9.67,-10.09,-10.01,0,*5E
1513145021.34,44944,6.94,72844.0,-9.67,-10.09,-10.15,0,*5C
1513145022.53,44945,6.94,72842.3,-9.67,-10.09,-10.09,0,*50
1513145023.73,44946,6.94,72846.0,-9.71,-10.09,-10.15,0,*59
1513145024.93,44947,6.94,72846.0,-9.67,-10.09,-10.09,0,*52
1513145026.13,44948,6.94,72848.8,-9.67,-10.15,-10.09,0,*50
1513145027.33,44949,6.94,72846.0,-9.67,-10.15,-10.09,0,*51
1513145028.53,44950,6.94,72838.5,-9.71,-10.09,-10.09,0,*53
1513145029.73,44951,6.94,72838.5,-9.67,-10.15,-10.09,0,*58
1513145030.93,44952,6.94,72838.5,-9.71,-10.09,-10.15,0,*5C
1513145032.14,44953,6.94,72836.0,-9.71,-10.15,-10.15,0,*50
1513145033.35,44954,6.94,72832.3,-9.67,-10.15,-10.09,0,*5D
1513145034.56,44955,6.94,72832.8,-9.71,-10.15,-10.15,0,*56
1513145035.76,44956,6.94,72830.8,-9.71,-10.15,-10.09,0,*58
1513145036.96,44957,6.94,72828.3,-9.71,-10.09,-10.15,0,*59
1513145038.17,44958,6.94,72834.3,-9.71,-10.15,-10.09,0,*56
1513145039.38,44959,6.94,72834.0,-9.67,-10.15,-10.15,0,*5D
1513145040.58,44960,6.94,72838.8,-9.67,-10.23,-10.15,0,*52
1513145041.79,44961,6.94,72834.5,-9.67,-10.23,-10.15,0,*53
1513145043.0,44962,6.94,72830.5,-9.67,-10.23,-10.15,0,*50
1513145044.2,44963,6.94,72828.0,-9.71,-10.23,-10.23,0,*53
1513145045.4,44964,6.94,72810.3,-9.67,-10.23,-10.23,0,*53
1513145046.63,44965,6.94,72810.8,-9.65,-10.19,-10.09,0,*51
1513145047.84,44966,6.94,72828.0,-9.71,-10.27,-10.15,0,*57
1513145049.04,44967,6.94,72830.5,-9.67,-10.23,-10.23,0,*50
1513145050.25,44968,6.94,72824.0,-9.67,-10.23,-10.27,0,*5B
1513145051.45,44969,6.94,72826.5,-9.67,-10.23,-10.23,0,*5E
1513145052.65,44970,6.94,72832.8,-9.67,-10.23,-10.23,0,*56
1513145053.85,44971,6.94,72828.3,-9.67,-10.27,-10.23,0,*53
1513145055.05,44972,6.94,72830.3,-9.67,-10.23,-10.23,0,*54
1513145056.25,44973,6.94,72828.8,-9.67,-10.23,-10.23,0,*55
1513145057.45,44974,6.94,72826.3,-9.67,-10.23,-10.23,0,*52
1513145058.65,44975,6.94,72832.0,-9.67,-10.23,-10.23,0,*53
1513145059.86,44976,6.94,72830.3,-9.67,-10.23,-10.27,0,*54
1513145061.06,44977,6.94,72828.0,-9.71,-10.23,-10.23,0,*56
1513145062.26,44978,6.94,72834.0,-9.67,-10.23,-10.23,0,*5E
1513145063.46,44979,6.94,72830.5,-9.67,-10.27,-10.23,0,*5B
1513145064.67,44980,6.94,72830.0,-9.67,-10.23,-10.27,0,*5D
1513145065.88,44981,6.94,72834.3,-9.67,-10.27,-10.27,0,*58
1513145067.09,44982,6.94,72830.8,-9.71,-10.27,-10.27,0,*5C
1513145068.29,44983,6.94,72832.8,-9.67,-10.23,-10.27,0,*5E
1513145069.49,44984,6.94,72838.0,-9.67,-10.27,-10.23,0,*59
1513145070.69,44985,6.94,72836.5,-9.67,-10.27,-10.23,0,*58
1513145071.9,44986,6.94,72834.5,-9.71,-10.23,-10.23,0,*58
1513145073.1,44987,6.94,72838.8,-9.71,-10.27,-10.23,0,*5D
1513145074.32,44988,6.94,72838.0,-9.65,-10.23,-10.23,0,*53
1513145075.53,44989,6.94,72836.3,-9.67,-10.23,-10.23,0,*50
1513145076.73,44990,6.94,72832.3,-9.67,-10.23,-10.23,0,*58
1513145077.93,44991,6.94,72836.0,-9.71,-10.23,-10.23,0,*5E
1513145079.13,44992,6.94,72832.3,-9.71,-10.27,-10.23,0,*59
1513145080.33,44993,6.94,72834.3,-9.67,-10.23,-10.23,0,*5B
1513145081.54,44994,6.94,72834.8,-9.67,-10.27,-10.27,0,*5C
1513145082.74,44995,6.94,72832.8,-9.67,-10.23,-10.27,0,*59
1513145083.95,44996,6.94,72836.5,-9.67,-10.15,-10.23,0,*5B
1513145085.16,44997,6.94,72838.5,-9.67,-10.23,-10.27,0,*5B
1513145086.36,44998,6.94,72840.3,-9.67,-10.23,-10.23,0,*50
1513145087.56,44999,6.94,72836.0,-9.67,-10.23,-10.27,0,*55
1513145088.76,45000,6.94,72834.8,-9.71,-10.27,-10.23,0,*5A
1513145089.97,45001,6.94,72842.3,-9.67,-10.23,-10.23,0,*58
1513145091.17,45002,6.94,72840.8,-9.67,-10.23,-10.15,0,*5E
1513145092.37,45003,6.94,72838.8,-9.67,-10.27,-10.23,0,*5E
1513145093.57,45004,6.94,72840.3,-9.67,-10.27,-10.23,0,*59
1513145094.78,45005,6.94,72840.3,-9.67,-10.23,-10.23,0,*5C
1513145095.98,45006,6.94,72842.0,-9.71,-10.23,-10.23,0,*58
1513145097.18,45007,6.94,72840.0,-9.71,-10.27,-10.23,0,*5D
1513145098.38,45008,6.94,72836.3,-9.67,-10.27,-10.23,0,*55
1513145099.58,45009,6.94,72836.0,-9.67,-10.27,-10.23,0,*54
1513145100.79,45010,6.94,72834.5,-9.67,-10.27,-10.27,0,*58
1513145101.99,45011,6.94,72840.3,-9.67,-10.27,-10.23,0,*5D
1513145103.19,45012,6.94,72838.5,-9.71,-10.23,-10.23,0,*5D
1513145104.4,45013,6.94,72842.0,-9.67,-10.23,-10.27,0,*5F
1513145105.6,45014,6.94,72838.0,-9.67,-10.27,-10.23,0,*58
1513145106.8,45015,6.94,72836.3,-9.67,-10.27,-10.23,0,*59
1513145108.03,45016,6.94,72836.8,-9.65,-10.19,-10.23,0,*55
1513145109.27,45017,6.94,72836.0,-9.65,-10.19,-10.23,0,*54
1513145110.47,45018,6.94,72834.0,-9.67,-10.23,-10.27,0,*54
1513145111.67,45019,6.94,72834.5,-9.71,-10.23,-10.23,0,*56
1513145112.88,45020,6.94,72840.0,-9.67,-10.27,-10.27,0,*5B
1513145114.09,45021,6.94,72842.3,-9.67,-10.23,-10.27,0,*5E
1513145115.29,45022,6.94,72844.0,-9.67,-10.23,-10.27,0,*5D
1513145116.49,45023,6.94,72836.8,-9.67,-10.27,-10.23,0,*5C
1513145117.7,45024,6.94,72836.0,-9.67,-10.27,-10.27,0,*5F
1513145118.9,45025,6.94,72828.0,-9.67,-10.27,-10.23,0,*5A
1513145120.11,45026,6.94,72832.0,-9.67,-10.23,-10.27,0,*59
1513145121.34,45027,6.94,72836.5,-9.65,-10.23,-10.23,0,*5E
1513145122.54,45028,6.94,72836.8,-9.67,-10.23,-10.23,0,*53
1513145123.74,45029,6.94,72834.3,-9.67,-10.27,-10.23,0,*56
1513145124.94,45030,6.94,72836.5,-9.67,-10.23,-10.23,0,*5A
1513145126.14,45031,6.94,72838.0,-9.67,-10.27,-10.23,0,*5F
1513145127.34,45032,6.94,72838.5,-9.67,-10.23,-10.23,0,*58
1513145128.54,45033,6.94,72840.8,-9.67,-10.27,-10.23,0,*5D
1513145129.75,45034,6.94,72840.0,-9.67,-10.23,-10.27,0,*5A
1513145130.95,45035,6.94,72840.8,-9.67,-10.23,-10.23,0,*5F
1513145132.16,45036,6.94,72838.0,-9.71,-10.27,-10.15,0,*5A
1513145133.36,45037,6.94,72832.5,-9.67,-10.23,-10.23,0,*5D
1513145134.56,45038,6.94,72834.3,-9.67,-10.27,-10.23,0,*56
1513145135.76,45039,6.94,72836.3,-9.67,-10.23,-10.23,0,*53
1513145136.96,45040,6.94,72840.3,-9.67,-10.23,-10.23,0,*5D
1513145138.17,45041,6.94,72842.3,-9.67,-10.27,-10.27,0,*5C
1513145139.38,45042,6.94,72846.8,-9.71,-10.27,-10.27,0,*58
1513145140.58,45043,6.94,72844.5,-9.67,-10.27,-10.23,0,*5A
1513145141.78,45044,6.94,72844.3,-9.67,-10.23,-10.23,0,*59
1513145142.99,45045,6.94,72848.0,-9.67,-10.27,-10.27,0,*58
1513145144.19,45046,6.94,72850.3,-9.67,-10.27,-10.27,0,*5B
1513145145.43,45047,6.94,72846.3,-9.65,-10.19,-10.23,0,*51
1513145146.63,45048,6.94,72844.3,-9.67,-10.27,-10.23,0,*51
1513145147.83,45049,6.94,72848.0,-9.67,-10.23,-10.23,0,*54
1513145149.04,45050,6.94,72846.5,-9.67,-10.23,-10.27,0,*58
1513145150.24,45051,6.94,72846.0,-9.67,-10.23,-10.23,0,*5D
1513145151.44,45052,6.94,72844.8,-9.67,-10.27,-10.23,0,*5A
1513145152.64,45053,6.94,72846.3,-9.67,-10.27,-10.27,0,*5F
1513145153.85,45054,6.94,72844.0,-9.67,-10.23,-10.27,0,*5C
1513145155.05,45055,6.94,72846.0,-9.67,-10.27,-10.23,0,*5D
1513145156.26,45056,6.94,72844.0,-9.67,-10.27,-10.27,0,*5A
1513145157.46,45057,6.94,72846.8,-9.67,-10.23,-10.23,0,*5B
1513145158.69,45058,6.94,72846.3,-9.65,-10.19,-10.23,0,*5F
1513145159.92,45059,6.94,72840.8,-9.65,-10.19,-10.23,0,*5E
1513145161.13,45060,6.94,72846.3,-9.67,-10.27,-10.23,0,*5B
1513145162.33,45061,6.94,72842.5,-9.67,-10.27,-10.23,0,*5A
1513145163.53,45062,6.94,72846.8,-9.67,-10.27,-10.27,0,*5D
1513145164.74,45063,6.94,72844.0,-9.67,-10.23,-10.27,0,*58
1513145165.94,45064,6.94,72844.3,-9.67,-10.27,-10.23,0,*5F
1513145167.15,45065,6.94,72844.5,-9.67,-10.27,-10.27,0,*5A
1513145168.36,45066,6.94,72850.0,-9.67,-10.27,-10.27,0,*59
1513145169.56,45067,6.94,72848.0,-9.71,-10.27,-10.27,0,*5F
1513145170.77,45068,6.94,72844.5,-9.71,-10.23,-10.27,0,*54
1513145171.97,45069,6.94,72848.3,-9.67,-10.27,-10.23,0,*52
1513145173.18,45070,6.94,72850.3,-9.67,-10.23,-10.27,0,*5A
1513145174.38,45071,6.94,72848.0,-9.67,-10.27,-10.23,0,*5B
1513145175.58,45072,6.94,72846.5,-9.67,-10.27,-10.23,0,*58
1513145176.81,45073,6.94,72846.3,-9.65,-10.19,-10.23,0,*56
1513145178.05,45074,6.94,72844.3,-9.65,-10.19,-10.23,0,*51
1513145179.25,45075,6.94,72848.5,-9.67,-10.23,-10.27,0,*5F
1513145180.45,45076,6.94,72846.8,-9.67,-10.23,-10.23,0,*58
1513145181.65,45077,6.94,72848.3,-9.67,-10.23,-10.23,0,*59
1513145182.85,45078,6.94,72850.0,-9.67,-10.23,-10.23,0,*56
1513145184.06,45079,6.94,72846.5,-9.67,-10.27,-10.27,0,*57
1513145185.26,45080,6.94,72846.3,-9.67,-10.23,-10.23,0,*51
1513145186.47,45081,6.94,72846.8,-9.67,-10.27,-10.27,0,*50
1513145187.67,45082,6.94,72846.5,-9.67,-10.23,-10.23,0,*53
1513145188.88,45083,6.94,72850.0,-9.71,-10.27,-10.27,0,*55
1513145190.11,45084,6.94,72844.3,-9.65,-10.23,-10.23,0,*57
1513145191.34,45085,6.94,72840.8,-9.65,-10.19,-10.19,0,*56
1513145192.57,45086,6.94,72844.0,-9.65,-10.23,-10.23,0,*55
1513145193.81,45087,6.94,72846.8,-9.65,-10.19,-10.19,0,*54
1513145195.05,45088,6.94,72850.0,-9.65,-10.19,-10.19,0,*5B
1513145196.25,45089,6.94,72844.5,-9.67,-10.23,-10.23,0,*58
1513145197.45,45090,6.94,72846.8,-9.67,-10.23,-10.23,0,*50
1513145198.69,45091,6.94,72838.8,-9.65,-10.19,-10.19,0,*53
1513145199.89,45092,6.94,72838.0,-9.67,-10.27,-10.27,0,*52
1513145201.1,45093,6.94,72836.0,-9.67,-10.27,-10.23,0,*57
1513145202.3,45094,6.94,72832.5,-9.67,-10.27,-10.23,0,*50
1513145203.5,45095,6.94,72836.5,-9.67,-10.27,-10.27,0,*55
1513145204.71,45096,6.94,72834.5,-9.67,-10.23,-10.27,0,*52
1513145205.92,45097,6.94,72836.3,-9.67,-10.27,-10.27,0,*57
1513145207.13,45098,6.94,72840.0,-9.67,-10.27,-10.27,0,*58
1513145208.33,45099,6.94,72840.3,-9.67,-10.27,-10.23,0,*5D
1513145209.53,45100,6.94,72840.8,-9.67,-10.23,-10.23,0,*58
1513145210.76,45101,6.94,72844.5,-9.65,-10.23,-10.23,0,*5B
1513145211.96,45102,6.94,72844.0,-9.67,-10.27,-10.27,0,*5A
1513145213.19,45103,6.94,72844.8,-9.65,-10.23,-10.23,0,*59
1513145214.42,45104,6.94,72842.0,-9.65,-10.23,-10.19,0,*57
1513145215.65,45105,6.94,72846.3,-9.65,-10.31,-10.23,0,*5C
1513145216.89,45106,6.94,72844.0,-9.65,-10.19,-10.19,0,*5C
1513145218.12,45107,6.94,72844.8,-9.65,-10.23,-10.23,0,*5D
1513145219.36,45108,6.94,72840.3,-9.65,-10.19,-10.19,0,*52
1513145220.58,45109,6.94,72842.5,-9.65,-10.23,-10.23,0,*53
1513145221.81,45110,6.94,72844.0,-9.65,-10.31,-10.23,0,*58
1513145223.04,45111,6.94,72844.3,-9.65,-10.23,-10.23,0,*5A
1513145224.27,45112,6.94,72842.8,-9.65,-10.23,-10.31,0,*5A
1513145225.5,45113,6.94,72844.8,-9.65,-10.23,-10.23,0,*58
1513145226.7,45114,6.94,72842.3,-9.67,-10.27,-10.23,0,*59
1513145227.91,45115,6.94,72832.8,-9.67,-10.27,-10.27,0,*5C
1513145229.11,45116,6.94,72812.8,-9.67,-10.27,-10.23,0,*5B
1513145230.32,45117,6.94,72808.5,-9.71,-10.35,-10.23,0,*5E
1513145231.52,45118,6.94,72814.8,-9.67,-10.23,-10.27,0,*55
1513145232.75,45119,6.94,72824.5,-9.65,-10.23,-10.23,0,*52
1513145233.98,45120,6.94,72824.0,-9.65,-10.19,-10.23,0,*51
1513145235.19,45121,6.94,72828.0,-9.67,-10.27,-10.27,0,*5B
1513145236.4,45122,6.94,72834.0,-9.67,-10.23,-10.27,0,*5C
1513145237.6,45123,6.94,72832.5,-9.67,-10.27,-10.27,0,*59
1513145238.81,45124,6.94,72834.0,-9.67,-10.27,-10.27,0,*5E
1513145240.02,45125,6.94,72826.8,-9.67,-10.35,-10.27,0,*5C
1513145241.25,45126,6.94,72826.3,-9.65,-10.31,-10.23,0,*5D
1513145242.45,45127,6.94,72830.0,-9.67,-10.27,-10.23,0,*59
1513145243.66,45128,6.94,72828.3,-9.67,-10.27,-10.35,0,*51
1513145244.86,45129,6.94,72836.8,-9.67,-10.27,-10.23,0,*57
1513145246.07,45130,6.94,72836.8,-9.67,-10.35,-10.27,0,*58
1513145247.28,45131,6.94,72836.3,-9.67,-10.35,-10.27,0,*59
1513145248.49,45132,6.94,72842.3,-9.67,-10.27,-10.27,0,*59
1513145249.7,45133,6.94,72842.0,-9.67,-10.27,-10.27,0,*58
1513145250.91,45134,6.94,72842.3,-9.67,-10.35,-10.35,0,*5F
1513145252.12,45135,6.94,72844.3,-9.67,-10.35,-10.27,0,*5D
1513145253.33,45136,6.94,72844.8,-9.67,-10.35,-10.27,0,*5E
1513145254.54,45137,6.94,72844.8,-9.67,-10.27,-10.27,0,*5C
1513145255.75,45138,6.94,72844.5,-9.67,-10.27,-10.27,0,*53
1513145256.95,45139,6.94,72846.3,-9.67,-10.27,-10.27,0,*52
1513145258.16,45140,6.94,72842.0,-9.67,-10.27,-10.27,0,*5C
1513145259.37,45141,6.94,72842.3,-9.67,-10.27,-10.27,0,*5D
1513145260.58,45142,6.94,72846.3,-9.67,-10.27,-10.35,0,*5D
1513145261.78,45143,6.94,72844.3,-9.67,-10.27,-10.27,0,*5F
1513145262.99,45144,6.94,72844.3,-9.67,-10.27,-10.27,0,*58
1513145264.2,45145,6.94,72846.0,-9.67,-10.27,-10.27,0,*59
1513145265.41,45146,6.94,72848.5,-9.71,-10.35,-10.35,0,*5D
1513145266.62,45147,6.94,72846.5,-9.67,-10.35,-10.27,0,*58
1513145267.83,45148,6.94,72846.0,-9.67,-10.35,-10.27,0,*57
1513145269.04,45149,6.94,72846.5,-9.67,-10.35,-10.27,0,*56
1513145270.25,45150,6.94,72850.3,-9.67,-10.35,-10.27,0,*5E
1513145271.46,45151,6.94,72850.8,-9.71,-10.27,-10.27,0,*5B
1513145272.67,45152,6.94,72852.0,-9.67,-10.27,-10.27,0,*5F
1513145273.88,45153,6.94,72850.5,-9.71,-10.27,-10.35,0,*5A
1513145275.09,45154,6.94,72850.5,-9.67,-10.27,-10.27,0,*59
1513145276.3,45155,6.94,72848.0,-9.67,-10.35,-10.27,0,*5B
1513145277.53,45156,6.94,72848.8,-9.67,-10.41,-10.23,0,*5F
1513145278.74,45157,6.94,72852.3,-9.71,-10.35,-10.27,0,*5E
1513145279.94,45158,6.94,72850.3,-9.67,-10.27,-10.35,0,*56
1513145281.15,45159,6.94,72854.8,-9.67,-10.27,-10.27,0,*54
1513145282.36,45160,6.94,72848.0,-9.67,-10.23,-10.35,0,*59
1513145283.57,45161,6.94,72846.5,-9.67,-10.27,-10.27,0,*5F
1513145284.77,45162,6.94,72844.8,-9.67,-10.27,-10.23,0,*58
1513145285.98,45163,6.94,72840.0,-9.71,-10.27,-10.35,0,*59
1513145287.21,45164,6.94,72842.3,-9.71,-10.41,-10.27,0,*5D
1513145288.42,45165,6.94,72838.5,-9.67,-10.27,-10.27,0,*5B
1513145289.62,45166,6.94,72838.3,-9.67,-10.23,-10.27,0,*5C
1513145290.83,45167,6.94,72838.0,-9.67,-10.27,-10.27,0,*59
1513145292.04,45168,6.94,72838.5,-9.67,-10.35,-10.27,0,*55
1513145293.25,45169,6.94,72836.3,-9.71,-10.27,-10.23,0,*54